Location: Eldred Sherwood Park Lake Dam
(42.9416°N, 93.5655°W)
Time: 22:44:17
(UTC+00:00)

Transit 4A - Pass Details

Date: 19 November 2024
Orbit: 862 x 980 km, 66.8° (Epoch: 06 December)

Event Time Altitude Azimuth Distance (km) Brightness Sun altitude
Rises 00:16:37 0° 333° (NNW) 3,650 11.2 -16.2°
Reaches altitude 10° 00:21:44 10° 9° (N) 2,723 10.1 -17.1°
Maximum altitude 00:23:24 11° 24° (NNE) 2,655 10.0 -17.4°
Enters shadow 00:23:54 11° 29° (NNE) 2,663 9.9 -17.5°
